Date String (YYYY-MM-DD hh:mm:ss) UTC,Instrument flags,Ambient pressure (hPa),Sample flow (lpm),Bypass flow (lpm),Sample temperature (°C),Ambient temperature (°C),ASC tube jacket temperature (°C),LED temperature (°C),Box temperature (°C),Sample RH (%),Span deviation,Mass concentration (μg/m³),Mass concentration (μg/m³),Mass concentration (μg/m³)
DateTimeUTC,F1_M11,P_M11,Q1_M11,Q2_M11,T1_M11,T2_M11,T3_M11,T4_M11,T5_M11,U1_M11,ZSPAN_M11,X2_M11,X0_M11,X1_M11
2021-10-05 13:00:00,,0832.3,5.01,0.00,29.8,29.0,00.0,38.9,31.6,12.5,0001.8,0004.56,0012.46,0003.70
2021-10-05 13:01:00,,0832.3,4.99,0.00,29.8,28.9,00.0,38.9,31.5,12.6,0001.6,0004.57,0012.74,0003.70
2021-10-05 13:02:00,,0832.3,5.01,0.00,29.8,28.9,00.0,38.9,31.5,12.6,0001.5,0004.55,0012.84,0003.72
2021-10-05 13:03:00,,0832.4,5.01,0.00,29.7,28.9,00.0,38.9,31.5,12.6,0001.7,0004.58,0013.15,0003.76
2021-10-05 13:04:00,,0832.3,4.99,0.00,29.7,28.9,00.0,38.9,31.5,12.6,0001.7,0004.65,0013.36,0003.77
2021-10-05 13:05:00,,0832.3,5.00,0.00,29.7,28.9,00.0,38.8,31.5,12.5,0001.3,0004.75,0014.22,0003.81
2021-10-05 13:06:00,,0832.3,5.01,0.00,29.7,28.8,00.0,38.8,31.4,12.6,0001.3,0004.84,0015.19,0003.83
2021-10-05 13:07:00,,0832.4,5.01,0.00,29.7,28.8,00.0,38.8,31.4,12.6,0001.6,0004.93,0015.73,0003.87
2021-10-05 13:08:00,,0832.4,4.99,0.00,29.7,28.8,00.0,38.8,31.4,12.6,0001.2,0004.96,0015.49,0003.91
2021-10-05 13:09:00,,0832.4,5.00,0.00,29.6,28.8,00.0,38.8,31.4,12.6,0001.8,0005.00,0015.56,0003.94
2021-10-05 13:10:00,,0832.5,5.01,0.00,29.6,28.7,00.0,38.8,31.3,12.6,0001.1,0005.10,0015.50,0003.97
2021-10-05 13:11:00,,0832.5,4.98,0.00,29.6,28.7,00.0,38.8,31.3,12.5,0000.8,0005.17,0014.95,0004.00
2021-10-05 13:12:00,,0832.5,5.00,0.00,29.6,28.7,00.0,38.8,31.3,12.4,0001.0,0005.20,0014.73,0004.01
2021-10-05 13:13:00,,0832.5,5.01,0.00,29.6,28.7,00.0,38.8,31.3,12.4,0001.4,0005.22,0014.47,0004.03
2021-10-05 13:14:00,,0832.5,4.99,0.00,29.6,28.7,00.0,38.8,31.3,12.4,0002.0,0005.23,0014.58,0004.03
2021-10-05 13:15:00,,0832.5,5.01,0.00,29.6,28.7,00.0,38.7,31.3,12.4,0002.3,0005.28,0014.73,0004.04
2021-10-05 13:16:00,,0832.5,5.00,0.00,29.6,28.7,00.0,38.7,31.3,12.4,0003.0,0005.26,0014.79,0004.06
2021-10-05 13:17:00,,0832.5,5.01,0.00,29.6,28.7,00.0,38.7,31.3,12.4,0002.9,0005.23,0013.54,0004.05
2021-10-05 13:18:00,,0832.5,4.99,0.00,29.6,28.7,00.0,38.7,31.3,12.4,0000.6,0005.19,0013.79,0004.05
2021-10-05 13:19:00,,0832.5,5.00,0.00,29.6,28.7,00.0,38.7,31.3,12.4,0001.0,0005.22,0014.45,0004.04
2021-10-05 13:20:00,,0832.5,5.01,0.00,29.5,28.7,00.0,38.7,31.3,12.4,0002.5,0005.21,0014.45,0004.03
2021-10-05 13:21:00,,0832.5,4.99,0.00,29.5,28.6,00.0,38.7,31.3,12.4,0000.7,0005.15,0013.95,0004.02
2021-10-05 13:22:00,,0832.4,5.01,0.00,29.5,28.6,00.0,38.7,31.2,12.4,0000.0,0005.16,0013.70,0004.00
2021-10-05 13:23:00,,0832.5,4.99,0.00,29.5,28.6,00.0,38.7,31.2,12.4,0000.0,0005.17,0014.17,0004.00
2021-10-05 13:24:00,,0832.4,5.00,0.00,29.5,28.6,00.0,38.7,31.2,12.4,0002.4,0005.22,0014.76,0003.99
2021-10-05 13:25:00,,0832.5,5.01,0.00,29.5,28.6,00.0,38.6,31.2,12.4,0000.5,0005.20,0014.85,0003.99
2021-10-05 13:26:00,,0832.5,4.99,0.00,29.4,28.6,00.0,38.6,31.2,12.5,0000.4,0005.17,0015.12,0003.98
2021-10-05 13:27:00,,0832.5,5.00,0.00,29.4,28.6,00.0,38.6,31.2,12.5,0000.0,0005.20,0014.88,0003.96
2021-10-05 13:28:00,,0832.5,5.00,0.00,29.4,28.5,00.0,38.6,31.1,12.4,0000.8,0005.24,0015.10,0003.97
2021-10-05 13:29:00,,0832.5,5.00,0.00,29.4,28.5,00.0,38.6,31.1,12.4,0001.2,0005.24,0015.34,0003.96
2021-10-05 13:30:00,,0832.5,5.00,0.00,29.4,28.5,00.0,38.6,31.1,12.4,0001.0,0005.26,0015.52,0003.94
2021-10-05 13:31:00,,0832.6,5.00,0.00,29.4,28.5,00.0,38.6,31.1,12.4,0000.5,0005.35,0017.05,0003.93
2021-10-05 13:32:00,,0832.6,5.00,0.00,29.4,28.5,00.0,38.6,31.1,12.4,0000.6,0005.35,0017.05,0003.92
2021-10-05 13:33:00,,0832.6,5.00,0.00,29.4,28.5,00.0,38.5,31.1,12.4,0000.8,0005.27,0016.91,0003.90
2021-10-05 13:34:00,,0832.6,4.99,0.00,29.4,28.5,00.0,38.5,31.1,12.5,0000.2,0005.20,0016.31,0003.89
2021-10-05 13:35:00,,0832.6,5.00,0.00,29.4,28.5,00.0,38.5,31.1,12.5,0000.3,0005.10,0016.55,0003.88
2021-10-05 13:36:00,,0832.6,5.01,0.00,29.4,28.5,00.0,38.5,31.1,12.5,0000.1,0005.05,0016.72,0003.85
2021-10-05 13:37:00,,0832.6,5.00,0.00,29.4,28.5,00.0,38.5,31.1,12.5,0000.4,0004.98,0016.05,0003.83
2021-10-05 13:38:00,,0832.6,4.99,0.00,29.4,28.5,00.0,38.5,31.1,12.5,0000.5,0004.90,0015.67,0003.81
2021-10-05 13:39:00,,0832.6,4.99,0.00,29.4,28.5,00.0,38.5,31.2,12.4,0000.2,0004.82,0015.30,0003.77
2021-10-05 13:40:00,,0832.6,5.01,0.00,29.4,28.5,00.0,38.5,31.1,12.4,0000.6,0004.83,0014.79,0003.78
2021-10-05 13:41:00,,0832.7,4.99,0.00,29.4,28.5,00.0,38.5,31.1,12.5,0001.8,0004.78,0014.76,0003.77
2021-10-05 13:42:00,,0832.7,5.00,0.00,29.4,28.6,00.0,38.5,31.1,12.5,0002.4,0004.72,0014.07,0003.76
2021-10-05 13:43:00,,0832.7,5.00,0.00,29.4,28.6,00.0,38.5,31.1,12.5,0002.6,0004.73,0013.97,0003.77
2021-10-05 13:44:00,,0832.7,4.99,0.00,29.4,28.6,00.0,38.5,31.1,12.5,0002.3,0004.70,0014.08,0003.76
2021-10-05 13:45:00,,0832.7,5.02,0.00,29.4,28.6,00.0,38.5,31.2,12.5,0002.9,0004.72,0013.91,0003.76
2021-10-05 13:46:00,,0832.7,5.00,0.00,29.4,28.6,00.0,38.5,31.1,12.5,0003.2,0004.73,0013.65,0003.75
2021-10-05 13:47:00,,0832.7,4.99,0.00,29.4,28.6,00.0,38.5,31.2,12.4,0001.8,0004.73,0013.20,0003.75
2021-10-05 13:48:00,,0832.7,5.00,0.00,29.4,28.6,00.0,38.5,31.2,12.5,0000.0,0004.75,0014.06,0003.74
2021-10-05 13:49:00,,0832.7,5.00,0.00,29.4,28.6,00.0,38.5,31.2,12.5,0000.0,0004.78,0014.50,0003.73
2021-10-05 13:50:00,,0832.7,5.01,0.00,29.4,28.6,00.0,38.5,31.2,12.6,0000.0,0004.75,0014.69,0003.72
2021-10-05 13:51:00,,0832.6,5.00,0.00,29.4,28.6,00.0,38.5,31.2,12.4,0000.0,0004.71,0014.18,0003.71
2021-10-05 13:52:00,,0832.6,4.99,0.00,29.4,28.7,00.0,38.5,31.2,12.4,0000.0,0004.71,0013.49,0003.70
2021-10-05 13:53:00,,0832.7,5.00,0.00,29.4,28.7,00.0,38.5,31.2,12.4,0000.0,0004.68,0012.53,0003.68
2021-10-05 13:54:00,,0832.7,5.00,0.00,29.4,28.7,00.0,38.5,31.2,12.4,0000.0,0004.63,0012.40,0003.67
2021-10-05 13:55:00,,0832.7,4.99,0.00,29.4,28.7,00.0,38.5,31.2,12.4,0000.0,0004.65,0012.22,0003.66
2021-10-05 13:56:00,,0832.7,5.00,0.00,29.4,28.7,00.0,38.5,31.2,12.4,0000.0,0004.64,0012.19,0003.65
2021-10-05 13:57:00,,0832.7,4.99,0.00,29.4,28.7,00.0,38.5,31.2,12.5,0000.0,0004.63,0012.26,0003.64
2021-10-05 13:58:00,,0832.7,5.00,0.00,29.4,28.7,00.0,38.5,31.2,12.5,0000.0,0004.63,0012.25,0003.64
2021-10-05 13:59:00,,0832.7,5.00,0.00,29.4,28.7,00.0,38.5,31.2,12.4,0000.0,0004.64,0011.45,0003.65
